Regional Weather Roundup
Issued by NWS Little Rock, AR

Home | Current Version | Previous Version | Graphics & Text | Print | Product List | Glossary On
Versions: 1 2 3 4 5 6 7 8 9 10 11 12 13 14 15 16 17 18 19 20 21 22 23 24 25 26 27 28 29 30 31 32 33 34 35 36 37 38 39 40 41 42 43 44 45 46 47 48 49 50
000
ASUS44 KLZK 300705
RWRLZK

WEATHER ROUNDUP FOR ARKANSAS
NATIONAL WEATHER SERVICE LITTLE ROCK AR
200 AM CDT SUN APR 30 2017

NOTE: "FAIR" INDICATES FEW OR NO CLOUDS BELOW 12,000 FEET WITH NO
SIGNIFICANT WEATHER AND/OR OBSTRUCTIONS TO VISIBILITY.

ARZ001-003-010-029-300800-
NORTHWEST ARKANSAS

CITY           SKY/WX    TMP DP  RH WIND       PRES   REMARKS
FAYETTEVILLE   CLOUDY    63  63 100 E6        29.62R THUNDER
FORT SMITH     TSTM      66  63  90 SW5       29.61R VSB 1
HARRISON       LGT RAIN  63  63 100 SE16      29.66F
BENTONVILLE    CLOUDY    64  61  88 SE9       29.62F
ROGERS         LGT RAIN  64  63  96 E14G20    29.62S
SILOAM SPGS    CLOUDY    64  61  88 E6        29.59F
HIGHFILL       CLOUDY    65  64  97 E6        29.60F
$$

ARZ004-005-016-300800-
NORTH CENTRAL ARKANSAS

CITY           SKY/WX    TMP DP  RH WIND       PRES   REMARKS
BATESVILLE     CLOUDY    66  66 100 E7        29.74F
FLIPPIN        CLOUDY    64  61  88 E5        29.67F
MTN HOME       RAIN      64  63  96 SE7       29.70F
$$

ARZ040-041-300800-
WEST CENTRAL ARKANSAS

CITY           SKY/WX    TMP DP  RH WIND       PRES   REMARKS
MENA           NOT AVBL
$$

ARZ009-017-025-026-028-300800-
NORTHEAST ARKANSAS

CITY           SKY/WX    TMP DP  RH WIND       PRES   REMARKS
JONESBORO      TSTM      66  64  93 W8G21     29.79R FOG
NEWPORT        TSTM      65  64  97 W7        29.75R
WALNUT RIDGE   CLOUDY    66  63  88 NW6       29.81R THUNDER
BLYTHEVILLE    CLOUDY    75  68  78 S15G26    29.74F
$$

ARZ022-023-033-042-044-300800-
CENTRAL ARKANSAS

CITY           SKY/WX    TMP DP  RH WIND       PRES   REMARKS
LITTLE ROCK    TSTM      64  64 100 E5        29.67F FOG
N LITTLE ROCK    N/A     64  63  96 S3        29.68F
JACKSONVILLE   TSTM      64  64 100 S3        29.72R VSB 1
CONWAY           N/A     66  64  94 NE6       29.67R
SEARCY         TSTM      66  66 100 E5        29.75F
CLINTON        TSTM      64  64 100 CALM      29.70F VSB 1/2
$$

ARZ036-300800-
EAST ARKANSAS

CITY           SKY/WX    TMP DP  RH WIND       PRES   REMARKS
WEST MEMPHIS   CLOUDY    75  69  81 S16       29.76R
$$

ARZ050-053-066-070-073-300800-
SOUTHWEST ARKANSAS

CITY           SKY/WX    TMP DP  RH WIND       PRES   REMARKS
ARKADELPHIA    FAIR      72  71  97 S7        29.61F
CAMDEN         LGT RAIN  73  70  88 S9        29.64F
TEXARKANA      CLOUDY    60  58  92 W15G29    29.69R
EL DORADO      LGT RAIN  75  72  90 S8        29.66F
DE QUEEN       TSTM      59  59 100 W16       29.66R
$$

ARZ056-057-069-300800-
SOUTHEAST ARKANSAS

CITY           SKY/WX    TMP DP  RH WIND       PRES   REMARKS
PINE BLUFF     TSTM      74  70  87 SE26G40   29.63R FOG
STUTTGART      CLOUDY    75  63  64 SE17G26   29.68F
MONTICELLO     CLOUDY    76  70  82 SE9       29.69F

$$





USA.gov is the U.S. government's official web portal to all federal, state and local government web resources and services.